Location: Unspecified
(49.2170°N, 0.0000°E)
Time: 05:07:56
(UTC+00:00)

Courier 1B Rocket - Pass Details

Date: 26 January 2021
Orbit: 920 x 1202 km, 28.3° (Epoch: 05 March)

Event Time Altitude Azimuth Distance (km) Brightness Sun altitude
Rises 09:17:42 0° 238° (WSW) 3,805 8.0 11.9°
Reaches altitude 10° 09:23:18 10° 202° (SSW) 2,935 7.9 12.5°
Maximum altitude 09:24:42 11° 191° (S) 2,909 8.1 12.6°
Drops below altitude 10° 09:26:07 10° 180° (S) 2,975 8.5 12.8°
Sets 09:31:59 0° 145° (SE) 4,007 10.2 13.4°
